DAL5543 KISP-CYXE

Flight info

Callsign DAL5543
Flight time N/A
Altitude 38000
Route HOBAM J95 STOMP Q812 ARRKK Q140 PEPLA Q917 SSM DCT AGLIN Q831 KOBID Q908 YOUNG DCT PENPI DUNEM7
Aircraft A20N/M-SDE2E3FGHIRWXY/LB1

Departure

Time 2026-04-20 20:14
Airport Long Island MacArthur Airport (KISP)

Arrival

Time N/A
Airport Saskatoon John G. Diefenbaker International Airport (CYXE)
Time Latitude Longitude Altitude Speed Heading
2026-04-20 19:45 40.79032 -73.09796 92 ft 0 kts 180°
2026-04-20 20:04 40.79039 -73.09796 90 ft 1 kts 180°
2026-04-20 20:05 40.79046 -73.09795 92 ft 1 kts 180°
2026-04-20 20:05 40.79054 -73.09795 91 ft 1 kts 180°
2026-04-20 20:05 40.79062 -73.09795 91 ft 1 kts 180°
2026-04-20 20:05 40.79070 -73.09795 91 ft 1 kts 180°
2026-04-20 20:06 40.79077 -73.09795 91 ft 1 kts 180°
2026-04-20 20:06 40.79085 -73.09795 91 ft 1 kts 168°
2026-04-20 20:06 40.79093 -73.09798 91 ft 1 kts 153°
2026-04-20 20:06 40.79100 -73.09803 93 ft 1 kts 137°
2026-04-20 20:07 40.79105 -73.09810 91 ft 1 kts 123°
2026-04-20 20:07 40.79109 -73.09819 91 ft 1 kts 114°
2026-04-20 20:07 40.79112 -73.09828 91 ft 1 kts 104°
2026-04-20 20:07 40.79114 -73.09838 91 ft 1 kts 94°
2026-04-20 20:08 40.79114 -73.09842 91 ft 0 kts 90°
2026-04-20 20:11 40.79114 -73.09832 93 ft 3 kts 90°
2026-04-20 20:11 40.79113 -73.09781 93 ft 9 kts 91°
2026-04-20 20:11 40.79113 -73.09690 90 ft 11 kts 90°
2026-04-20 20:12 40.79118 -73.09573 91 ft 14 kts 70°
2026-04-20 20:12 40.79165 -73.09497 88 ft 5 kts 45°
2026-04-20 20:12 40.79166 -73.09495 90 ft 0 kts 45°
2026-04-20 20:13 40.79189 -73.09468 91 ft 9 kts 37°
2026-04-20 20:13 40.79257 -73.09467 89 ft 11 kts 324°
2026-04-20 20:13 40.79366 -73.09608 91 ft 53 kts 315°
2026-04-20 20:14 40.79799 -73.10175 98 ft 118 kts 315°
2026-04-20 20:14 40.80424 -73.11005 601 ft 127 kts 315°
2026-04-20 20:14 40.81096 -73.11918 962 ft 151 kts 316°
2026-04-20 20:14 40.81888 -73.12958 1348 ft 172 kts 316°
2026-04-20 20:15 40.82769 -73.14103 1797 ft 187 kts 317°
2026-04-20 20:15 40.83599 -73.15446 2435 ft 192 kts 305°
2026-04-20 20:15 40.84359 -73.16900 3066 ft 190 kts 306°
2026-04-20 20:15 40.85132 -73.18370 3277 ft 199 kts 306°
2026-04-20 20:16 40.85928 -73.19930 2898 ft 217 kts 304°
2026-04-20 20:16 40.86820 -73.21734 3000 ft 247 kts 304°
2026-04-20 20:16 40.87742 -73.23634 3004 ft 243 kts 303°
2026-04-20 20:16 40.88654 -73.25531 3005 ft 246 kts 303°
2026-04-20 20:17 40.89576 -73.27457 3010 ft 249 kts 303°
2026-04-20 20:17 40.90494 -73.29378 3006 ft 244 kts 303°
2026-04-20 20:17 40.91400 -73.31271 3011 ft 245 kts 303°
2026-04-20 20:17 40.92307 -73.33161 3008 ft 247 kts 303°
2026-04-20 20:18 40.93215 -73.35058 3007 ft 243 kts 303°
2026-04-20 20:18 40.94124 -73.36954 3010 ft 245 kts 303°
2026-04-20 20:18 40.95039 -73.38863 2989 ft 247 kts 303°
2026-04-20 20:18 40.95964 -73.40793 3266 ft 248 kts 303°
2026-04-20 20:19 40.96891 -73.42730 4052 ft 250 kts 303°
2026-04-20 20:19 40.97814 -73.44661 5081 ft 249 kts 303°
2026-04-20 20:19 40.98748 -73.46615 5943 ft 253 kts 302°
2026-04-20 20:19 40.99687 -73.48583 6868 ft 254 kts 302°
2026-04-20 20:20 41.00621 -73.50535 7745 ft 255 kts 301°
2026-04-20 20:20 41.01574 -73.52528 8622 ft 257 kts 301°
2026-04-20 20:20 41.02536 -73.54541 9517 ft 260 kts 300°
2026-04-20 20:20 41.03507 -73.56574 10356 ft 264 kts 299°
2026-04-20 20:21 41.04356 -73.58362 10641 ft 282 kts 299°
2026-04-20 20:21 41.05439 -73.60649 10878 ft 304 kts 299°
2026-04-20 20:21 41.06586 -73.63066 11441 ft 313 kts 299°
2026-04-20 20:21 41.07754 -73.65517 12205 ft 316 kts 300°
2026-04-20 20:22 41.08536 -73.67163 12660 ft 320 kts 300°
2026-04-20 20:22 41.10115 -73.70487 13683 ft 324 kts 299°
2026-04-20 20:22 41.11320 -73.73028 14390 ft 327 kts 299°
2026-04-20 20:22 41.12534 -73.75596 15053 ft 330 kts 299°
2026-04-20 20:23 41.13759 -73.78189 15711 ft 333 kts 299°
2026-04-20 20:23 41.14996 -73.80809 16370 ft 336 kts 299°
2026-04-20 20:23 41.16242 -73.83453 17023 ft 340 kts 300°
2026-04-20 20:23 41.17501 -73.86125 17662 ft 343 kts 300°
2026-04-20 20:24 41.18769 -73.88818 18274 ft 346 kts 300°
2026-04-20 20:24 41.20051 -73.91545 18844 ft 350 kts 300°
2026-04-20 20:24 41.21163 -73.93911 19297 ft 353 kts 300°
2026-04-20 20:24 41.22151 -73.96015 19689 ft 355 kts 300°
2026-04-20 20:25 41.23464 -73.98814 20202 ft 359 kts 300°
2026-04-20 20:25 41.24786 -74.01635 20725 ft 362 kts 300°
2026-04-20 20:25 41.26122 -74.04488 21236 ft 365 kts 300°
2026-04-20 20:25 41.27469 -74.07365 21742 ft 369 kts 300°
2026-04-20 20:26 41.28828 -74.10270 22283 ft 371 kts 300°
2026-04-20 20:26 41.30198 -74.13203 22753 ft 376 kts 300°
2026-04-20 20:26 41.31586 -74.16177 23233 ft 380 kts 300°
2026-04-20 20:26 41.32967 -74.19138 23786 ft 383 kts 300°
2026-04-20 20:27 41.34377 -74.22164 24225 ft 386 kts 300°
2026-04-20 20:27 41.35798 -74.25215 24629 ft 389 kts 300°
2026-04-20 20:27 41.37229 -74.28293 24859 ft 392 kts 300°
2026-04-20 20:27 41.38662 -74.31375 24940 ft 391 kts 300°
2026-04-20 20:28 41.39608 -74.33411 25010 ft 392 kts 300°
2026-04-20 20:28 41.41520 -74.37558 25095 ft 392 kts 299°
2026-04-20 20:28 41.42888 -74.40691 25396 ft 393 kts 298°
2026-04-20 20:28 41.44242 -74.43852 25839 ft 394 kts 298°
2026-04-20 20:29 41.45591 -74.47005 26192 ft 397 kts 298°
2026-04-20 20:29 41.46963 -74.50198 26570 ft 400 kts 298°
2026-04-20 20:29 41.48352 -74.53422 26924 ft 402 kts 298°
2026-04-20 20:29 41.49755 -74.56674 27278 ft 405 kts 298°
2026-04-20 20:30 41.51161 -74.59934 27614 ft 407 kts 298°
2026-04-20 20:30 41.52576 -74.63217 27955 ft 409 kts 298°
2026-04-20 20:30 41.53999 -74.66521 28282 ft 412 kts 298°
2026-04-20 20:30 41.55428 -74.69846 28610 ft 414 kts 298°
2026-04-20 20:31 41.56837 -74.73126 28910 ft 416 kts 298°
2026-04-20 20:31 41.58370 -74.76500 29016 ft 419 kts 302°
2026-04-20 20:31 41.62159 -74.82373 29036 ft 423 kts 315°
2026-04-20 20:32 41.66691 -74.87428 29034 ft 424 kts 317°
2026-04-20 20:32 41.71233 -74.92464 29036 ft 424 kts 317°
2026-04-20 20:33 41.75776 -74.97509 29047 ft 424 kts 317°
2026-04-20 20:33 41.80284 -75.02518 29097 ft 424 kts 317°
2026-04-20 20:34 41.84822 -75.07571 29101 ft 422 kts 317°
2026-04-20 20:34 41.89320 -75.12589 29100 ft 421 kts 317°
2026-04-20 20:35 41.93823 -75.17620 29103 ft 421 kts 317°
2026-04-20 20:35 41.98294 -75.22625 29106 ft 421 kts 317°
2026-04-20 20:36 42.02792 -75.27671 29107 ft 421 kts 317°
2026-04-20 20:36 42.06882 -75.33244 29105 ft 418 kts 306°
2026-04-20 20:37 42.10087 -75.39742 29107 ft 417 kts 300°
2026-04-20 20:37 42.13163 -75.46339 29108 ft 414 kts 301°
2026-04-20 20:38 42.16212 -75.52895 29414 ft 417 kts 301°
2026-04-20 20:38 42.17752 -75.56219 29737 ft 419 kts 301°
2026-04-20 20:38 42.19295 -75.59556 30026 ft 421 kts 301°
2026-04-20 20:39 42.20847 -75.62918 30317 ft 423 kts 301°
2026-04-20 20:39 42.22404 -75.66293 30565 ft 425 kts 301°
2026-04-20 20:39 42.23965 -75.69683 30812 ft 427 kts 301°
2026-04-20 20:39 42.25535 -75.73092 31033 ft 429 kts 300°
2026-04-20 20:40 42.26256 -75.74660 31159 ft 429 kts 300°
2026-04-20 20:40 42.27834 -75.78096 31391 ft 431 kts 300°
2026-04-20 20:40 42.29407 -75.81525 31779 ft 429 kts 301°
2026-04-20 20:40 42.30975 -75.84943 32118 ft 428 kts 301°
2026-04-20 20:41 42.32541 -75.88361 32406 ft 428 kts 301°
2026-04-20 20:41 42.34106 -75.91780 32707 ft 427 kts 301°
2026-04-20 20:41 42.35668 -75.95197 32968 ft 427 kts 300°
2026-04-20 20:41 42.37230 -75.98618 33264 ft 427 kts 300°
2026-04-20 20:42 42.38786 -76.02032 33518 ft 427 kts 300°
2026-04-20 20:42 42.40324 -76.05409 33793 ft 427 kts 300°
2026-04-20 20:42 42.41881 -76.08829 34067 ft 427 kts 300°
2026-04-20 20:42 42.43435 -76.12251 34324 ft 426 kts 300°
2026-04-20 20:43 42.44987 -76.15670 34568 ft 425 kts 301°
2026-04-20 20:43 42.46528 -76.19070 34867 ft 423 kts 301°
2026-04-20 20:43 42.48065 -76.22463 35054 ft 423 kts 300°
2026-04-20 20:43 42.49602 -76.25862 35226 ft 423 kts 300°
2026-04-20 20:44 42.51139 -76.29262 35417 ft 423 kts 300°
2026-04-20 20:44 42.52674 -76.32662 35597 ft 423 kts 300°
2026-04-20 20:44 42.54184 -76.36010 35760 ft 423 kts 300°
2026-04-20 20:44 42.55717 -76.39412 35919 ft 423 kts 300°
2026-04-20 20:45 42.57249 -76.42815 36073 ft 423 kts 300°
2026-04-20 20:45 42.58780 -76.46221 36224 ft 423 kts 300°
2026-04-20 20:45 42.60309 -76.49628 36377 ft 423 kts 300°
2026-04-20 20:45 42.61836 -76.53034 36578 ft 421 kts 300°
2026-04-20 20:46 42.63356 -76.56427 36761 ft 420 kts 300°
2026-04-20 20:46 42.64875 -76.59822 36901 ft 421 kts 300°
2026-04-20 20:46 42.66376 -76.63179 37034 ft 421 kts 300°
2026-04-20 20:46 42.67895 -76.66584 37173 ft 421 kts 300°
2026-04-20 20:47 42.69410 -76.69980 37319 ft 421 kts 300°
2026-04-20 20:47 42.70929 -76.73391 37447 ft 421 kts 300°
2026-04-20 20:47 42.72440 -76.76788 37571 ft 421 kts 300°
2026-04-20 20:47 42.73953 -76.80193 37695 ft 421 kts 300°
2026-04-20 20:48 42.75464 -76.83599 37823 ft 420 kts 300°
2026-04-20 20:48 42.76974 -76.87006 37926 ft 420 kts 300°
2026-04-20 20:48 42.78478 -76.90407 38096 ft 419 kts 300°
2026-04-20 20:48 42.79961 -76.93760 38147 ft 419 kts 300°
2026-04-20 20:49 42.82959 -77.00550 38149 ft 418 kts 300°
2026-04-20 20:49 42.85950 -77.07340 38152 ft 418 kts 300°
2026-04-20 20:50 42.88935 -77.14133 38156 ft 418 kts 300°
2026-04-20 20:50 42.91894 -77.20962 38158 ft 419 kts 300°
2026-04-20 20:51 42.94801 -77.27792 38154 ft 418 kts 300°
2026-04-20 20:51 42.97721 -77.34645 38154 ft 418 kts 300°
2026-04-20 20:52 43.00643 -77.41506 38156 ft 418 kts 300°
2026-04-20 20:52 43.03557 -77.48365 38167 ft 418 kts 300°
2026-04-20 20:53 43.06450 -77.55190 38164 ft 418 kts 300°
2026-04-20 20:53 43.09355 -77.62065 38161 ft 416 kts 300°
2026-04-20 20:54 43.12238 -77.68900 38164 ft 415 kts 300°
2026-04-20 20:54 43.14468 -77.74194 38164 ft 415 kts 300°
2026-04-20 20:55 43.17813 -77.82158 38175 ft 415 kts 300°
2026-04-20 20:55 43.20693 -77.89033 38170 ft 416 kts 300°
2026-04-20 20:56 43.23570 -77.95917 38150 ft 416 kts 300°
2026-04-20 20:56 43.25945 -78.01616 38170 ft 413 kts 300°
2026-04-20 20:57 43.28792 -78.08456 38167 ft 413 kts 300°
2026-04-20 20:57 43.31715 -78.16710 38172 ft 415 kts 292°
2026-04-20 20:58 43.33493 -78.22879 38172 ft 415 kts 293°
2026-04-20 20:58 43.35622 -78.30175 38181 ft 415 kts 293°
2026-04-20 20:59 43.37758 -78.37538 38184 ft 415 kts 293°
2026-04-20 20:59 43.39883 -78.44904 38188 ft 415 kts 293°
2026-04-20 21:00 43.42001 -78.52270 38187 ft 414 kts 293°
2026-04-20 21:00 43.44102 -78.59598 38188 ft 414 kts 293°
2026-04-20 21:01 43.46213 -78.66977 38184 ft 415 kts 293°
2026-04-20 21:01 43.48309 -78.74336 38188 ft 411 kts 294°
2026-04-20 21:02 43.50396 -78.81667 38188 ft 412 kts 294°
2026-04-20 21:02 43.52484 -78.89016 38191 ft 412 kts 294°
2026-04-20 21:03 43.54549 -78.96309 38184 ft 411 kts 293°
2026-04-20 21:03 43.56622 -79.03663 38185 ft 412 kts 293°
2026-04-20 21:04 43.58680 -79.10997 38184 ft 407 kts 294°
2026-04-20 21:04 43.60723 -79.18284 38174 ft 408 kts 294°
2026-04-20 21:05 43.62753 -79.25544 38170 ft 408 kts 294°
2026-04-20 21:05 43.64789 -79.32850 38172 ft 408 kts 294°
2026-04-20 21:06 43.66540 -79.40316 38173 ft 410 kts 290°
2026-04-20 21:06 43.68189 -79.47859 38174 ft 411 kts 290°
2026-04-20 21:07 43.69843 -79.55426 38162 ft 411 kts 290°
2026-04-20 21:07 43.71475 -79.62942 38163 ft 411 kts 290°
2026-04-20 21:08 43.73115 -79.70523 38172 ft 411 kts 290°
2026-04-20 21:08 43.74748 -79.78102 38169 ft 411 kts 290°
2026-04-20 21:09 43.76371 -79.85667 38174 ft 410 kts 290°
2026-04-20 21:09 43.77981 -79.93173 38173 ft 410 kts 291°
2026-04-20 21:10 43.80208 -80.00363 38171 ft 405 kts 302°
2026-04-20 21:10 43.83419 -80.06709 38174 ft 402 kts 312°
2026-04-20 21:11 43.87265 -80.12320 38175 ft 402 kts 315°
2026-04-20 21:11 43.91097 -80.17880 38159 ft 400 kts 315°
2026-04-20 21:12 43.94915 -80.23430 38174 ft 397 kts 315°
2026-04-20 21:12 43.98738 -80.28990 38174 ft 398 kts 315°
2026-04-20 21:13 44.02562 -80.34561 38176 ft 398 kts 315°
2026-04-20 21:13 44.06354 -80.40098 38179 ft 398 kts 315°
2026-04-20 21:14 44.10165 -80.45673 38182 ft 398 kts 315°
2026-04-20 21:14 44.13979 -80.51263 38182 ft 398 kts 315°
2026-04-20 21:15 44.17778 -80.56846 38185 ft 395 kts 315°
2026-04-20 21:15 44.21532 -80.62370 38193 ft 396 kts 315°
2026-04-20 21:16 44.25316 -80.67950 38195 ft 397 kts 315°
2026-04-20 21:16 44.29103 -80.73545 38194 ft 396 kts 315°
2026-04-20 21:17 44.32886 -80.79146 38195 ft 397 kts 315°
2026-04-20 21:17 44.36643 -80.84719 38196 ft 396 kts 315°
2026-04-20 21:18 44.40421 -80.90336 38195 ft 396 kts 315°
2026-04-20 21:18 44.44175 -80.95932 38200 ft 394 kts 315°
2026-04-20 21:19 44.47928 -81.01532 38196 ft 394 kts 315°
2026-04-20 21:20 44.53525 -81.09906 38189 ft 394 kts 315°
2026-04-20 21:20 44.57267 -81.15519 38183 ft 394 kts 315°
2026-04-20 21:21 44.61012 -81.21148 38183 ft 394 kts 315°
2026-04-20 21:21 44.64751 -81.26780 38182 ft 394 kts 315°
2026-04-20 21:22 44.68470 -81.32393 38178 ft 390 kts 315°
2026-04-20 21:22 44.72146 -81.37946 38188 ft 391 kts 315°
2026-04-20 21:23 44.75849 -81.43548 38194 ft 391 kts 315°
2026-04-20 21:23 44.79553 -81.49164 38198 ft 391 kts 315°
2026-04-20 21:24 44.83248 -81.54779 38200 ft 391 kts 314°
2026-04-20 21:24 44.86943 -81.60405 38207 ft 391 kts 314°
2026-04-20 21:25 44.90594 -81.65975 38209 ft 389 kts 314°
2026-04-20 21:25 44.94272 -81.71598 38201 ft 390 kts 314°
2026-04-20 21:26 44.97943 -81.77222 38201 ft 389 kts 314°
2026-04-20 21:26 45.01589 -81.82820 38196 ft 390 kts 314°
2026-04-20 21:27 45.05254 -81.88456 38187 ft 390 kts 314°
2026-04-20 21:27 45.08922 -81.94111 38193 ft 390 kts 314°
2026-04-20 21:28 45.12587 -81.99770 38189 ft 390 kts 314°
2026-04-20 21:28 45.16251 -82.05442 38191 ft 390 kts 314°
2026-04-20 21:29 45.19888 -82.11082 38187 ft 390 kts 314°
2026-04-20 21:29 45.23554 -82.16779 38188 ft 390 kts 314°
2026-04-20 21:30 45.27213 -82.22477 38188 ft 390 kts 314°
2026-04-20 21:30 45.30855 -82.28161 38177 ft 388 kts 314°
2026-04-20 21:31 45.34466 -82.33807 38188 ft 389 kts 314°
2026-04-20 21:31 45.38082 -82.39471 38185 ft 389 kts 314°
2026-04-20 21:32 45.41548 -82.45361 38184 ft 390 kts 310°
2026-04-20 21:32 45.44926 -82.51424 38186 ft 389 kts 311°
2026-04-20 21:33 45.48286 -82.57446 38180 ft 389 kts 311°
2026-04-20 21:33 45.51641 -82.63488 38178 ft 388 kts 310°
2026-04-20 21:34 45.54976 -82.69514 38170 ft 389 kts 310°
2026-04-20 21:34 45.58333 -82.75593 38174 ft 389 kts 310°
2026-04-20 21:35 45.61675 -82.81658 38162 ft 389 kts 310°
2026-04-20 21:35 45.65021 -82.87743 38169 ft 389 kts 310°
2026-04-20 21:36 45.68339 -82.93791 38158 ft 389 kts 310°
2026-04-20 21:36 45.71678 -82.99889 38161 ft 389 kts 310°
2026-04-20 21:37 45.75000 -83.05970 38159 ft 389 kts 310°
2026-04-20 21:37 45.78335 -83.12087 38172 ft 390 kts 310°
2026-04-20 21:38 45.81654 -83.18190 38153 ft 389 kts 310°
2026-04-20 21:38 45.84964 -83.24287 38157 ft 390 kts 310°
2026-04-20 21:39 45.88299 -83.30446 38145 ft 389 kts 310°
2026-04-20 21:39 45.91606 -83.36565 38146 ft 389 kts 310°
2026-04-20 21:40 45.94898 -83.42670 38144 ft 389 kts 310°
2026-04-20 21:40 45.98212 -83.48827 38120 ft 388 kts 310°
2026-04-20 21:41 46.01502 -83.54957 38111 ft 388 kts 310°
2026-04-20 21:41 46.04792 -83.61100 38109 ft 389 kts 310°
2026-04-20 21:42 46.08075 -83.67241 38098 ft 387 kts 310°
2026-04-20 21:42 46.11345 -83.73373 38100 ft 387 kts 310°
2026-04-20 21:43 46.14625 -83.79536 38101 ft 387 kts 310°
2026-04-20 21:43 46.17895 -83.85696 38104 ft 387 kts 310°
2026-04-20 21:44 46.21176 -83.91888 38135 ft 387 kts 310°
2026-04-20 21:44 46.24433 -83.98049 38109 ft 387 kts 310°
2026-04-20 21:45 46.27691 -84.04226 38106 ft 386 kts 309°
2026-04-20 21:45 46.30925 -84.10374 38107 ft 387 kts 309°
2026-04-20 21:46 46.34056 -84.16719 38101 ft 387 kts 307°
2026-04-20 21:46 46.37133 -84.23090 38101 ft 387 kts 308°
2026-04-20 21:47 46.40240 -84.29479 38099 ft 387 kts 308°
2026-04-20 21:47 46.43037 -84.36124 38071 ft 390 kts 303°
2026-04-20 21:48 46.45721 -84.42963 38070 ft 388 kts 303°
2026-04-20 21:48 46.48404 -84.49770 38071 ft 389 kts 303°
2026-04-20 21:49 46.51067 -84.56545 38072 ft 389 kts 303°
2026-04-20 21:49 46.53745 -84.63384 38072 ft 389 kts 303°
2026-04-20 21:50 46.56399 -84.70186 38077 ft 389 kts 303°
2026-04-20 21:50 46.59049 -84.77002 38083 ft 387 kts 303°
2026-04-20 21:51 46.61685 -84.83797 38079 ft 386 kts 303°
2026-04-20 21:51 46.64331 -84.90631 38082 ft 387 kts 303°
2026-04-20 21:52 46.66960 -84.97439 38079 ft 387 kts 303°
2026-04-20 21:52 46.69580 -85.04243 38079 ft 387 kts 303°
2026-04-20 21:53 46.72197 -85.11055 38071 ft 387 kts 302°
2026-04-20 21:53 46.74803 -85.17856 38077 ft 384 kts 302°
2026-04-20 21:54 46.77406 -85.24667 38074 ft 385 kts 302°
2026-04-20 21:54 46.80009 -85.31493 38066 ft 385 kts 302°
2026-04-20 21:55 46.82603 -85.38314 38067 ft 385 kts 302°
2026-04-20 21:55 46.85186 -85.45123 38039 ft 385 kts 302°
2026-04-20 21:56 46.87773 -85.51962 38036 ft 385 kts 302°
2026-04-20 21:56 46.90368 -85.58834 38032 ft 388 kts 302°
2026-04-20 21:57 46.92964 -85.65731 38033 ft 387 kts 302°
2026-04-20 21:57 46.95549 -85.72616 38033 ft 387 kts 302°
2026-04-20 21:58 46.98146 -85.79550 38030 ft 387 kts 302°
2026-04-20 21:58 47.00712 -85.86418 38030 ft 387 kts 302°
2026-04-20 21:59 47.03279 -85.93310 38021 ft 387 kts 302°
2026-04-20 21:59 47.05853 -86.00234 38018 ft 387 kts 302°
2026-04-20 22:00 47.08426 -86.07175 38007 ft 386 kts 302°
2026-04-20 22:00 47.10978 -86.14080 38011 ft 386 kts 302°
2026-04-20 22:01 47.13526 -86.20987 38001 ft 386 kts 302°
2026-04-20 22:01 47.16083 -86.27939 37986 ft 387 kts 301°
2026-04-20 22:02 47.18614 -86.34839 37994 ft 384 kts 301°
2026-04-20 22:02 47.21155 -86.41784 37988 ft 385 kts 301°
2026-04-20 22:03 47.23686 -86.48718 37989 ft 385 kts 301°
2026-04-20 22:03 47.26200 -86.55625 37987 ft 385 kts 301°
2026-04-20 22:04 47.28737 -86.62613 37984 ft 385 kts 301°
2026-04-20 22:04 47.31242 -86.69529 37935 ft 385 kts 301°
2026-04-20 22:05 47.33741 -86.76450 37968 ft 384 kts 301°
2026-04-20 22:05 47.36250 -86.83414 37967 ft 385 kts 301°
2026-04-20 22:06 47.38726 -86.90306 37962 ft 384 kts 301°